Explorer 25

operational
NORAD ID: 932 Int'l Des: 1964-076 Owner: LARCN Country: US
LEOELLIPTICALPOLAR

关于 Explorer 25

正在加载描述...

实时位置

正在加载3D地球...

即将过境

高度历史

Altitude vs Time

uPlot chart will show altitude changes over time

两行轨道根数

1 932U 64076B 26071.18109858 .00000489 00000-0 16395-3 0 9991
2 932 81.3347 93.1490 1119537 128.3419 242.3783 12.67107958806844
Epoch: Mar 12, 2026 • Age: 38 hours

当前状态

高度 2196.1 km
速度 6.47 km/s
星下点 -76.20°S, 33.39°E
类型 other

大型星座

Loading constellations...